User: anonymous   Login
Location: Unspecified
(0.0000°N, 0.0000°E)
Time: 03:32:41
(UTC+00:00)
Language:

ORS OBJECT Z - Orbit

View from above orbital plane
View from above orbital plane
View from above satellite
View from above satellite

Ground track
Ground track

The orbit data is extracted from the following two-line orbital elements,

1 39403U 13064Z   17112.84505342 +.00013861 +00000-0 +26248-3 0  9990
2 39403 040.5259 019.6693 0003075 234.3017 125.7516 15.48020116188872
Epoch (UTC): 22 April 2017 20:16:52
Eccentricity: 0.0003075
inclination: 40.5259°
perigee height: 420 km
apogee height: 424 km
right ascension of ascending node: 19.6693°
argument of perigee: 234.3017°
revolutions per day: 15.48020116
mean anomaly at epoch: 125.7516°
orbit number at epoch: 18887

The dashed part of the orbit path shows where the satellite is in the earth's shadow,  

DLR